Probability
71 68 65 65 65 61 55 52 55 61 58 58 58 65 58 58 55 61 45 45 42 48 48 42 45 39 26 32 32 26 26 26 16 16 23 23 32 19 6 23 16 3 3
58 68 65 71 71 61 55 55 58 58 61 58 58 58 52 45 52 48 48 39 39 32 32 29 35 23 26 26 26 23 19 23 23 10 23 26 32 32 26 29 6 0 3
58 65 65 68 71 71 61 58 52 52 52 45 52 55 52 55 45 48 52 39 35 32 32 35 23 19 19 26 32 23 23 13 29 16 19 26 26 19 32 16 10 10 0
61 68 68 68 71 71 68 68 58 61 61 55 58 58 55 45 45 52 45 39 32 35 35 23 19 19 16 19 19 26 26 26 26 19 16 16 13 10 23 19 13 23 3
61 68 68 71 74 71 71 65 68 65 55 55 48 48 45 42 39 35 35 35 29 29 23 23 26 16 13 13 6 13 16 19 16 13 16 10 13 10 10 10 0 3 13
65 65 65 65 61 58 48 52 52 52 52 45 42 39 39 26 6 3 19 23 23 26 29 26 16 16 3 3 0 0 0 3 0 6 13 10 13 10 10 3 6 3 3
68 61 61 52 52 55 42 48 52 55 55 48 45 39 35 29 6 0 0 13 29 29 26 26 6 3 0 3 0 0 0 0 0 3 0 3 3 3 10 6 3 10 6
61 58 48 52 52 52 52 45 45 45 42 42 32 35 32 23 3 0 0 3 16 19 16 19 16 6 0 0 0 0 0 0 0 0 0 3 0 3 3 3 3 0 0
52 52 48 52 45 48 39 45 45 45 42 39 35 32 29 19 3 0 0 3 10 13 13 13 16 6 0 0 0 0 0 0 0 0 0 0 0 0 0 0 0 0 0
48 52 48 45 42 35 35 39 42 42 35 32 32 29 23 19 6 0 0 3 10 10 10 6 0 0 0 0 0 0 0 0 0 0 0 0 0 0 0 0 0 0 0
45 39 35 29 32 26 32 32 35 35 29 26 23 23 16 10 6 0 0 3 13 6 3 3 0 0 0 0 0 0 0 0 0 0 0 0 0 0 0 0 0 0 0
32 29 26 23 23 23 26 32 32 26 19 19 19 16 13 10 6 0 0 0 3 3 3 0 0 0 0 0 0 0 0 0 0 0 0 0 0 0 0 0 0 0 0
29 26 26 16 13 19 19 19 19 19 19 19 16 10 3 6 3 0 0 0 0 0 3 0 0 0 0 0 0 0 0 0 0 0 0 0 0 0 0 0 0 0 0
19 16 16 13 13 13 10 10 10 10 13 6 3 3 3 6 3 3 0 0 0 0 0 0 0 0 0 0 0 0 0 0 0 0 0 0 0 0 0 0 0 0 0
16 16 13 13 13 6 0 3 3 3 3 0 0 0 0 0 3 3 0 0 0 0 0 0 0 0 0 0 0 0 0 0 0 0 0 0 0 0 0 0 0 0 0
10 10 6 6 3 3 3 3 0 0 0 0 0 0 0 0 0 0 0 0 0 0 0 0 0 0 0 0 0 0 0 0 0 0 0 0 0 0 0 0 0 0 0
6 3 3 0 3 3 3 3 3 0 0 0 0 0 0 0 0 0 0 0 0 0 0 0 0 0 0 0 0 0 0 0 0 0 0 0 0 0 0 0 0 0 0
3 3 3 3 3 3 0 0 0 0 0 0 0 0 0 0 0 0 0 0 0 0 0 0 0 0 0 0 0 0 0 0 0 0 0 0 0 0 0 0 0 0 0
3 3 0 0 0 0 0 0 0 0 0 0 0 0 0 0 0 0 0 0 0 0 0 0 0 0 0 0 0 0 0 0 0 0 0 0 0 0 0 0 0 0 0
0 0 0 0 0 0 0 0 0 0 0 0 0 0 0 0 0 0 0 0 0 0 0 0 0 0 0 0 0 0 0 0 0 0 0 0 0 0 0 0 0 0 0
0 0 0 0 0 0 0 0 0 0 0 0 0 0 0 0 0 0 0 0 0 0 0 0 0 0 0 0 0 0 0 0 0 0 0 0 0 0 0 0 0 0 0
0 0 0 0 0 0 0 0 0 0 0 0 0 0 0 0 0 0 0 0 0 0 0 0 0 0 0 0 0 0 0 0 0 0 0 0 0 0 0 0 0 0 0
0 0 0 0 0 0 0 0 0 0 0 0 0 0 0 0 0 0 0 0 0 0 0 0 0 0 0 0 0 0 0 0 0 0 0 0 0 0 0 0 0 0 0
0 0 0 0 0 0 0 0 0 0 0 0 0 0 0 0 0 0 0 0 0 0 0 0 0 0 0 0 0 0 0 0 0 0 0 0 0 0 0 0 0 0 0
0 0 0 0 0 0 0 0 0 0 0 0 0 0 0 0 0 0 0 0 0 0 0 0 0 0 0 0 0 0 0 0 0 0 0 0 0 0 0 0 0 0 0
0 0 0 0 0 0 0 0 0 0 0 0 0 0 0 0 0 0 0 0 0 0 0 0 0 0 0 0 0 0 0 0 0 0 0 0 0 0 0 0 0 0 0
Height
5861 5860 5859 5859 5859 5859 5860 5861 5862 5863 5865 5866 5868 5870 5871 5873 5874 5875 5876 5877 5878 5879 5879 5880 5880 5880 5880 5880 5880 5880 5880 5880 5880 5880 5880 5880 5880 5879 5879 5878 5878 5877 5876
5859 5859 5858 5858 5858 5858 5859 5859 5860 5861 5862 5864 5865 5866 5867 5869 5870 5871 5871 5872 5873 5874 5875 5875 5875 5875 5875 5875 5875 5875 5875 5875 5875 5875 5874 5874 5874 5873 5873 5872 5872 5871 5870
5858 5857 5857 5857 5857 5857 5857 5857 5858 5859 5860 5861 5862 5863 5864 5864 5865 5866 5867 5868 5868 5869 5869 5870 5870 5870 5869 5869 5869 5869 5869 5869 5869 5868 5868 5867 5867 5867 5866 5865 5864 5864 5863
5856 5856 5855 5855 5855 5854 5854 5855 5855 5856 5857 5858 5859 5859 5860 5860 5861 5861 5862 5862 5863 5863 5864 5864 5864 5864 5863 5863 5863 5863 5862 5862 5862 5861 5861 5860 5860 5859 5859 5858 5857 5856 5855
5854 5853 5853 5852 5852 5852 5852 5852 5852 5853 5853 5854 5855 5855 5855 5856 5856 5856 5856 5857 5857 5857 5857 5857 5857 5857 5857 5857 5856 5856 5855 5854 5854 5853 5853 5852 5852 5851 5850 5849 5849 5847 5846
5851 5850 5850 5849 5849 5849 5849 5849 5849 5849 5850 5850 5850 5850 5851 5851 5851 5851 5851 5851 5851 5851 5851 5851 5851 5851 5850 5850 5849 5848 5847 5846 5846 5845 5845 5844 5843 5842 5841 5840 5839 5838 5837
5848 5848 5847 5846 5845 5845 5845 5845 5845 5845 5846 5846 5846 5845 5846 5846 5845 5845 5845 5845 5845 5845 5844 5844 5844 5844 5843 5842 5841 5840 5839 5838 5838 5837 5836 5835 5834 5833 5832 5831 5829 5827 5826
5844 5844 5843 5842 5842 5841 5841 5841 5841 5841 5841 5841 5840 5840 5840 5840 5840 5839 5839 5839 5838 5838 5838 5837 5837 5836 5836 5835 5834 5832 5831 5830 5829 5828 5827 5826 5824 5823 5822 5820 5819 5817 5815
5840 5840 5839 5838 5838 5837 5837 5836 5836 5836 5835 5835 5835 5835 5834 5834 5834 5833 5833 5832 5832 5832 5831 5830 5830 5829 5828 5827 5826 5824 5823 5822 5820 5819 5817 5816 5814 5813 5811 5810 5808 5806 5803
5835 5835 5834 5833 5833 5833 5832 5832 5831 5831 5830 5829 5829 5829 5828 5828 5827 5827 5826 5826 5825 5825 5824 5823 5822 5821 5820 5819 5817 5815 5814 5812 5811 5809 5807 5806 5804 5802 5800 5798 5796 5794 5791
5830 5829 5829 5828 5827 5827 5827 5826 5826 5825 5825 5824 5823 5823 5822 5821 5821 5820 5819 5818 5818 5817 5816 5815 5814 5813 5812 5810 5808 5807 5805 5803 5801 5799 5797 5796 5794 5791 5789 5786 5784 5782 5779
5824 5823 5823 5822 5821 5821 5820 5820 5819 5819 5819 5818 5817 5816 5815 5814 5814 5813 5812 5811 5810 5809 5808 5807 5806 5804 5803 5801 5799 5797 5796 5793 5791 5789 5787 5785 5782 5780 5777 5774 5772 5769 5766
5818 5818 5817 5816 5816 5815 5814 5814 5813 5813 5812 5812 5810 5809 5808 5807 5806 5805 5804 5803 5802 5801 5800 5798 5797 5796 5794 5792 5790 5788 5786 5784 5781 5779 5777 5774 5771 5768 5765 5762 5759 5756 5753
5812 5811 5811 5810 5809 5809 5808 5808 5807 5806 5805 5804 5802 5801 5800 5799 5798 5798 5796 5795 5794 5793 5792 5790 5789 5787 5785 5783 5781 5779 5776 5774 5771 5769 5766 5762 5759 5756 5753 5750 5746 5743 5739
5805 5805 5804 5803 5803 5802 5802 5801 5800 5799 5797 5796 5795 5793 5792 5791 5790 5789 5789 5787 5786 5785 5783 5782 5780 5778 5776 5774 5771 5769 5766 5763 5760 5757 5754 5750 5747 5744 5740 5736 5733 5729 5725
5798 5798 5797 5797 5796 5796 5795 5794 5792 5792 5790 5789 5787 5786 5785 5783 5782 5781 5780 5779 5778 5776 5775 5773 5771 5769 5766 5764 5761 5759 5756 5752 5749 5745 5742 5738 5734 5731 5727 5723 5719 5715 5710
5791 5790 5790 5790 5789 5789 5788 5787 5786 5785 5783 5782 5780 5779 5777 5776 5775 5773 5772 5771 5769 5767 5766 5763 5761 5759 5756 5753 5751 5747 5744 5741 5737 5733 5730 5726 5722 5718 5714 5710 5706 5701 5696
5784 5784 5783 5783 5782 5782 5781 5780 5779 5778 5777 5775 5774 5772 5770 5769 5768 5766 5764 5763 5761 5759 5756 5754 5751 5749 5746 5743 5740 5736 5732 5729 5725 5721 5717 5714 5710 5706 5701 5697 5692 5688 5683
5778 5777 5777 5776 5776 5775 5774 5773 5772 5771 5770 5769 5767 5766 5764 5762 5761 5759 5756 5754 5752 5750 5747 5745 5742 5739 5735 5732 5728 5725 5721 5717 5713 5709 5705 5701 5697 5693 5688 5684 5679 5675 5670
5772 5771 5771 5770 5770 5769 5768 5767 5766 5765 5764 5763 5761 5759 5757 5756 5753 5751 5749 5747 5744 5741 5738 5735 5732 5729 5725 5721 5717 5714 5710 5706 5702 5698 5694 5690 5685 5681 5676 5672 5667 5663 5658
5766 5765 5765 5764 5764 5763 5762 5761 5760 5759 5757 5756 5754 5752 5750 5748 5746 5744 5741 5738 5736 5732 5729 5726 5722 5718 5714 5710 5707 5703 5699 5695 5691 5687 5683 5679 5674 5670 5665 5661 5656 5651 5647
5760 5760 5759 5759 5757 5757 5756 5755 5754 5752 5751 5749 5747 5745 5743 5740 5738 5735 5732 5729 5726 5723 5719 5716 5712 5708 5704 5700 5697 5693 5689 5685 5681 5677 5673 5669 5664 5660 5655 5651 5646 5642 5637
5755 5755 5755 5754 5753 5751 5750 5749 5747 5746 5744 5742 5740 5738 5735 5732 5730 5727 5724 5720 5717 5713 5710 5706 5703 5699 5695 5691 5687 5684 5680 5676 5672 5668 5664 5660 5655 5651 5646 5642 5638 5633 5629
5751 5750 5750 5749 5748 5746 5745 5743 5741 5739 5737 5735 5732 5730 5727 5725 5722 5719 5715 5712 5708 5705 5701 5697 5694 5690 5686 5682 5679 5675 5671 5667 5663 5659 5655 5651 5647 5643 5638 5634 5630 5626 5622
5746 5746 5745 5744 5742 5741 5739 5737 5735 5732 5730 5728 5725 5722 5719 5716 5713 5710 5707 5703 5699 5696 5692 5689 5685 5682 5678 5675 5671 5667 5664 5660 5656 5652 5648 5644 5640 5636 5631 5627 5623 5619 5616
5742 5741 5740 5738 5737 5735 5733 5730 5728 5725 5723 5720 5717 5714 5711 5708 5705 5701 5698 5694 5691 5688 5684 5681 5678 5675 5671 5668 5664 5661 5657 5653 5649 5645 5641 5637 5633 5629 5625 5622 5618 5614 5610
Wind_Speed
8 8 7 7 7 7 7 9 11 12 14 15 16 17 18 19 20 20 20 21 21 21 20 21 21 21 21 21 20 21 21 21 20 21 21 21 21 21 22 23 22 23 23
9 9 8 8 7 8 8 10 11 12 13 14 16 17 18 19 20 21 21 21 21 22 23 23 24 23 23 23 23 23 23 23 23 23 24 23 24 24 25 25 25 25 25
10 10 10 9 9 10 10 11 12 13 14 14 15 17 18 19 20 21 21 22 22 23 24 24 25 25 25 25 25 25 26 26 26 26 26 27 27 27 27 28 28 28 28
12 11 11 11 11 11 12 13 14 15 15 15 16 17 18 18 19 21 22 22 23 24 25 26 26 27 26 27 27 27 27 27 28 29 29 30 30 30 30 30 31 31 32
13 13 12 12 12 13 13 14 15 16 17 17 17 18 19 19 20 21 23 24 25 26 26 26 27 27 27 27 28 29 29 30 30 31 31 31 31 32 32 33 33 33 34
15 15 14 14 14 15 15 16 17 18 19 19 20 20 21 21 22 22 23 24 25 25 25 26 27 27 28 29 30 30 31 31 32 32 33 33 33 34 34 34 34 35 35
16 16 16 16 16 16 16 17 17 17 19 20 20 21 21 22 22 22 24 24 25 25 26 27 27 28 29 30 31 32 32 33 33 33 34 34 35 35 36 36 37 38 38
18 18 18 18 18 17 18 18 18 19 20 21 22 22 23 23 23 23 23 24 25 26 26 27 28 29 29 30 31 31 32 33 33 34 35 36 37 37 38 38 38 40 41
20 20 20 20 19 19 19 19 20 21 21 21 22 23 23 24 25 25 25 26 26 27 28 28 29 29 31 32 32 32 32 33 35 36 37 38 38 39 39 41 41 42 42
22 21 21 21 21 21 21 21 21 21 21 22 23 23 24 25 25 26 27 27 28 29 29 30 31 31 32 33 33 33 34 34 35 36 37 38 39 40 41 41 42 43 44
24 23 22 22 22 22 23 23 22 22 23 24 24 25 26 26 26 27 27 28 29 30 31 32 32 32 33 33 34 35 36 36 36 36 36 37 39 41 41 41 42 43 44
25 24 24 23 23 24 24 24 24 24 25 25 26 27 26 26 27 28 29 29 30 30 30 31 32 32 33 34 35 36 36 36 36 37 37 37 38 39 40 41 42 43 44
25 25 25 25 25 25 25 25 25 26 27 27 28 28 27 27 28 28 28 29 30 31 31 32 32 32 33 34 35 35 35 36 37 38 38 39 40 41 42 42 43 44 46
26 26 26 26 26 25 25 25 26 28 28 28 28 28 28 28 28 29 28 28 29 30 31 32 32 32 33 34 34 35 36 37 38 39 40 40 41 42 43 44 45 46 47
27 27 26 26 25 25 26 26 27 27 27 27 28 27 28 28 28 29 29 28 29 31 31 31 32 34 34 35 35 36 38 39 40 41 41 41 42 43 44 45 46 47 48
27 27 26 25 25 26 26 26 27 27 27 26 27 27 27 27 28 28 28 28 29 31 32 34 35 36 37 36 37 37 39 40 41 42 41 42 43 44 44 45 46 46 47
26 26 26 25 25 25 25 25 26 26 26 26 26 26 26 26 27 28 29 29 30 31 33 34 35 36 36 36 37 38 40 40 41 41 41 42 43 43 44 45 45 46 46
25 25 25 25 25 25 25 24 24 24 24 24 24 25 26 26 27 28 29 29 30 31 32 33 33 34 35 37 38 39 40 40 40 41 41 42 42 43 44 44 44 44 45
23 23 23 23 23 24 24 24 23 23 23 23 24 25 25 26 27 28 29 29 30 30 31 32 33 35 36 37 38 39 39 40 40 40 40 41 41 42 42 42 42 43 43
22 22 23 23 23 24 23 23 23 23 23 24 25 25 26 27 27 28 28 29 30 31 31 33 34 35 36 37 37 37 38 38 38 39 39 39 40 40 40 40 40 40 40
21 21 21 21 21 21 21 22 22 22 23 24 25 25 26 26 27 28 28 29 30 32 33 34 35 35 35 36 36 36 37 37 37 37 37 37 37 38 38 38 38 37 36
19 19 19 20 20 21 21 22 23 23 24 25 26 26 27 28 29 29 30 31 32 32 33 34 34 35 35 35 35 35 35 35 35 35 35 36 36 36 35 34 33 33 32
18 18 18 19 20 21 21 22 24 24 25 25 26 26 27 28 29 30 30 31 31 32 33 34 34 34 34 33 33 33 33 33 33 33 34 33 33 32 32 31 31 30 30
16 17 17 18 20 20 21 22 23 23 24 25 26 27 28 29 29 30 31 31 32 32 32 32 32 32 31 31 31 31 31 31 31 31 31 31 31 30 30 29 29 29 28
16 16 17 18 19 20 21 22 23 25 25 26 27 28 29 29 30 30 31 31 31 30 30 30 29 29 28 28 29 29 29 29 29 29 29 29 29 28 28 27 27 27 27
16 16 17 18 19 21 23 24 25 26 27 28 28 28 29 29 29 30 30 29 29 29 28 27 27 27 27 27 27 27 27 27 27 27 27 27 26 26 26 25 25 25 25
Wind_Direction
315 315 302 297 282 268 258 250 241 239 240 242 239 241 245 248 251 251 253 255 256 258 260 263 266 268 268 271 271 272 272 273 275 275 274 274 275 276 279 280 281 282 284
309 309 303 294 283 269 260 255 249 246 245 246 246 247 250 251 254 256 255 256 259 261 262 265 267 269 269 269 270 271 272 272 273 274 276 278 278 278 280 281 281 282 282
301 299 296 288 283 273 267 261 255 254 253 254 253 255 257 257 259 259 258 257 259 262 265 267 269 271 272 270 271 272 273 273 272 273 275 277 278 278 278 280 282 281 281
300 297 294 289 284 280 274 268 262 258 257 259 261 262 263 264 264 262 262 262 263 264 265 267 270 272 272 272 272 274 274 274 272 272 273 275 275 277 278 280 281 281 281
296 296 294 291 288 282 279 273 268 266 264 266 268 267 267 267 267 265 264 266 267 267 267 268 268 270 272 273 274 274 275 275 273 272 273 274 275 277 278 280 280 281 282
294 293 291 290 288 285 280 275 273 271 270 270 270 270 271 270 270 270 270 271 272 271 271 271 272 273 275 276 276 276 276 275 273 272 273 274 275 277 278 279 280 280 281
292 293 290 288 287 285 281 278 277 277 275 274 274 272 274 273 274 273 274 273 273 274 274 273 274 275 275 278 279 278 277 276 275 274 275 276 277 278 278 278 279 280 281
287 289 288 287 287 285 283 281 280 279 279 276 276 276 274 274 276 275 273 273 274 274 275 274 274 276 277 278 280 280 278 277 277 276 277 277 277 278 279 280 282 282 280
283 284 285 286 286 285 284 283 281 279 279 277 276 276 277 277 277 276 275 275 276 277 277 277 277 278 281 282 281 280 280 280 281 280 280 279 279 280 281 281 281 282 282
281 282 284 285 285 283 283 283 282 280 280 278 277 277 278 280 279 277 277 276 277 276 277 278 278 280 281 282 282 283 283 283 284 284 283 283 282 281 281 282 282 283 283
281 282 282 283 282 281 281 281 280 279 281 281 280 281 281 280 280 279 278 279 280 279 279 278 280 281 282 284 284 284 286 286 285 284 284 284 283 283 283 284 284 284 285
280 282 283 282 281 282 282 281 280 280 282 283 283 284 281 280 280 281 279 280 281 282 281 281 281 283 283 283 284 285 286 286 286 286 286 287 287 287 287 287 286 286 287
280 283 283 283 282 282 281 281 282 282 283 284 284 285 283 282 282 282 282 282 281 282 282 282 283 284 284 285 286 288 288 287 288 288 289 290 289 289 289 289 289 289 289
280 281 282 282 281 281 283 283 284 284 284 284 284 282 282 282 283 284 284 282 282 283 284 283 285 288 287 288 289 289 291 291 290 290 289 289 290 289 289 290 290 290 290
279 280 280 280 280 282 283 283 284 285 285 285 284 283 282 283 283 282 284 285 284 284 284 285 287 289 289 289 291 291 291 292 291 291 292 291 290 291 291 292 291 291 291
278 278 278 279 281 282 283 283 283 283 285 287 287 286 284 284 285 284 284 285 286 285 286 287 288 289 290 290 291 291 292 293 293 294 292 291 292 292 293 293 292 292 293
278 277 277 279 280 281 282 282 283 283 285 287 287 287 287 286 286 286 286 287 287 288 289 289 289 290 290 290 291 292 293 293 293 293 294 294 295 295 295 294 294 295 296
277 277 278 279 280 280 281 282 285 288 289 288 288 289 289 288 286 286 286 288 289 289 289 289 290 291 292 293 294 294 295 295 295 295 295 296 296 296 296 296 297 297 298
276 276 278 281 280 281 282 283 285 287 288 290 291 291 290 290 292 293 292 293 293 293 293 293 295 297 297 296 297 297 297 297 297 296 297 297 297 298 298 298 299 299 299
277 278 281 283 283 284 283 282 284 286 289 290 290 291 293 294 295 295 295 296 297 298 299 299 300 300 300 299 299 299 298 298 298 298 299 300 300 301 301 301 301 301 301
277 279 282 283 283 284 284 285 287 290 292 294 294 295 297 297 296 296 297 298 299 299 300 301 301 301 300 300 299 299 299 300 301 301 302 302 303 303 303 304 304 304 304
277 279 283 285 284 284 285 288 292 293 293 294 294 294 296 297 298 298 299 300 301 302 302 302 302 302 302 301 301 301 302 302 303 304 304 305 305 306 307 307 307 307 306
279 280 282 286 288 289 290 291 292 293 294 295 295 296 297 298 299 300 301 302 303 304 304 303 303 303 302 302 302 303 303 304 305 307 307 308 309 309 309 309 309 310 310
281 282 284 287 292 294 293 293 294 295 297 298 299 299 299 300 301 302 303 304 304 304 303 303 304 304 304 304 305 305 306 307 309 309 310 311 312 312 312 313 313 314 314
285 289 291 293 294 296 298 299 300 301 301 300 300 300 300 301 301 302 302 303 303 304 304 305 306 307 307 308 308 309 310 311 312 312 313 314 314 315 315 315 316 317 317
291 294 296 298 299 300 301 302 302 302 302 302 301 301 302 302 302 302 303 304 305 306 307 307 308 309 310 310 311 312 313 315 316 316 317 317 317 317 318 318 319 319 320